Flag for U.S.A. Weather past 2 weeks in Chattanooga, Tennessee, U.S.A.

Now
61 °F

Clear.


Feels Like: 61 °F
Forecast: 52 / 73 °F
Wind: 3 mph from East

Location: Lovell Field

Current Time: Apr 1, 2015 at 2:37:19 AM

Latest Report: Apr 1, 2015 at 1:53 AM


Visibility: 10 mi

Pressure: 29.92 "Hg

Humidity: 87%

Dew point: 57 °F

Location of ChattanoogaLocation

Historic Weather in Chattanooga — Graph

°F

Chattanooga temperature yesterday

Maximum temperature yesterday: 79 °F (at 5:53 PM)
Minimum temperature yesterday: 41 °F (at 6:53 AM)
Average temperature yesterday: 61 °F

Past Weeks' High & Low Weather Summary

 TemperatureHumidityPressure
High81 °F (Mar 17, 3:53 PM)97% (Mar 19, 5:53 PM)30.42 "Hg (Mar 19, 5:53 PM)
Low29 °F (Mar 29, 6:53 AM)16% (Mar 28, 6:53 PM)29.72 "Hg (Mar 26, 5:53 PM)
Average56 °F62%30.07 "Hg
* Reported Mar 17 12:53 AM — Apr 1 12:53 AM, Chattanooga, Weather by CustomWeather, © 2015

Note: Actual official high and low records may vary slightly from our data, if they occured in-between our weather recording intervals... More about our weather records

Advertising

Chattanooga weather history for previous 24 hours

 ConditionsComfort  
Time TempWeatherWind HumidityBarometerVisibility
12:53 AM
Wed, Apr 1
63 °FClear.No wind81%29.92 "Hg10 mi
11:53 PM
Tue, Mar 31
65 °FPassing clouds.5 mph78%29.91 "Hg10 mi
10:53 PM66 °FPassing clouds.6 mph73%29.92 "Hg10 mi
9:53 PM69 °FPassing clouds.7 mph68%29.91 "Hg10 mi
8:53 PM71 °FPassing clouds.8 mph59%29.89 "Hg10 mi
7:53 PM74 °FScattered clouds.12 mph52%29.88 "Hg10 mi
6:53 PM76 °FScattered clouds.8 mph45%29.86 "Hg10 mi
5:53 PM79 °FBroken clouds.12 mph39%29.85 "Hg10 mi
4:53 PM78 °FPartly sunny.9 mph39%29.88 "Hg10 mi
3:53 PM78 °FScattered clouds.13 mph37%29.90 "Hg10 mi
2:53 PM78 °FScattered clouds.14 mph36%29.92 "Hg10 mi
1:53 PM76 °FScattered clouds.10 mph39%29.96 "Hg10 mi
12:53 PM74 °FScattered clouds.7 mph41%29.99 "Hg10 mi
11:53 AM69 °FScattered clouds.7 mph41%30.03 "Hg10 mi
10:53 AM61 °FScattered clouds.5 mph50%30.05 "Hg10 mi
9:53 AM52 °FPassing clouds.No wind64%30.07 "Hg10 mi
8:53 AM47 °FSunny.No wind80%30.06 "Hg10 mi
7:53 AM42 °FPassing clouds.No wind89%30.06 "Hg10 mi
6:53 AM41 °FClear.No wind89%30.05 "Hg10 mi
5:53 AM42 °FClear.No wind85%30.03 "Hg10 mi
4:53 AM43 °FClear.No wind86%30.04 "Hg10 mi
3:53 AM44 °FClear.No wind85%30.05 "Hg10 mi
2:53 AM45 °FClear.No wind82%30.07 "Hg10 mi
Weather by CustomWeather, © 2015

See weather overviewHow to use our weather pages